DW4080 Weather Reports


Display with metric or nautical units.
time (UTC)temp
F
wind
direction
speed
MPH
gust
MPH
rain 1hr
in
rain 24hr
in
rain mn
in
humidity
%
barometer
mb
20260503174559 60 360 4.0 12.0 0.00 0.00 0.00 46 1011.1
20260503173055 59 360 7.0 15.0 0.00 0.00 0.00 45 1011.5
20260503171604 59 360 7.0 13.0 0.00 0.00 0.00 46 1011.6
20260503170109 58 360 7.0 15.0 0.00 0.00 0.00 45 1011.8
20260503081532 38 360 0.0 0.0 0.00 0.00 0.00 62 1014.1
20260503071524 38 360 0.0 0.0 0.00 0.00 0.00 64 1014.4
20260503054559 38 360 0.0 1.0 0.00 0.00 0.00 62 1015.1
20260503053058 38 360 0.0 0.0 0.00 0.00 0.00 59 1015.2
20260503051558 38 360 0.0 0.0 0.00 0.00 0.00 61 1015.2
20260503050056 38 360 0.0 0.0 0.00 0.00 0.00 59 1015.4
20260503044555 38 360 0.0 0.0 0.00 0.00 0.00 58 1015.4
20260503043054 38 360 0.0 0.0 0.00 0.00 0.00 59 1015.5
20260503041553 38 360 0.0 0.0 0.00 0.00 0.00 60 1015.5
20260503040050 38 360 0.0 0.0 0.00 0.00 0.00 60 1015.5
20260503034603 38 360 0.0 0.0 0.00 0.00 0.00 60 1015.6
20260503033055 38 360 0.0 0.0 0.00 0.00 0.00 63 1015.7
20260503031553 39 360 0.0 0.0 0.00 0.00 0.00 62 1015.8
20260503030047 40 360 0.0 0.0 0.00 0.00 0.00 60 1015.8
20260503024549 40 360 0.0 0.0 0.00 0.00 0.00 54 1015.9
20260503023044 41 360 0.0 0.0 0.00 0.00 0.00 56 1016.0
20260503021544 41 360 0.0 0.0 0.00 0.00 0.00 55 1015.9
20260503020044 42 360 0.0 0.0 0.00 0.00 0.00 58 1015.8
20260503014545 43 360 0.0 0.0 0.00 0.00 0.00 49 1015.9
20260503013042 44 360 0.0 0.0 0.00 0.00 0.00 47 1015.7
20260503011545 44 360 0.0 0.0 0.00 0.00 0.00 46 1015.6
20260503010007 45 360 0.0 3.0 0.00 0.00 0.00 46 1015.5
20260503004529 46 360 0.0 3.0 0.00 0.00 0.00 45 1015.5
20260503003049 47 360 1.0 3.0 0.00 0.00 0.00 43 1015.4
20260503001610 47 360 3.0 5.0 0.00 0.00 0.00 41 1015.4
20260503000113 48 360 2.0 6.0 0.00 0.00 0.00 42 1015.2
20260502234518 49 360 0.0 3.0 0.00 0.00 0.00 44 1015.2
20260502233033 49 360 0.0 4.0 0.00 0.00 0.00 45 1015.3
20260502231539 49 360 1.0 4.0 0.00 0.00 0.00 45 1015.4
20260502230057 49 5 0.0 4.0 0.00 0.00 0.00 45 1015.4
20260502224611 49 360 0.0 4.0 0.00 0.00 0.00 46 1015.5
20260502223015 49 360 2.0 5.0 0.00 0.00 0.00 44 1015.4
20260502221521 48 360 3.0 8.0 0.00 0.00 0.00 43 1015.5
20260502220036 49 5 1.0 4.0 0.00 0.00 0.00 47 1015.4
20260502214558 49 360 1.0 5.0 0.00 0.00 0.00 46 1015.5
20260502213100 49 80 2.0 4.0 0.00 0.00 0.00 47 1015.6
20260502211504 48 360 3.0 8.0 0.00 0.00 0.00 45 1015.7
20260502210013 50 360 2.0 6.0 0.00 0.00 0.00 45 1015.7
20260502204519 47 360 3.0 6.0 0.00 0.00 0.00 48 1016.0
20260502203032 47 360 3.0 6.0 0.00 0.00 0.00 46 1016.1
20260502201551 48 360 3.0 8.0 0.00 0.00 0.00 47 1016.2
20260502200107 48 360 3.0 8.0 0.00 0.00 0.00 45 1016.3
20260502194503 47 360 3.0 12.0 0.00 0.00 0.00 46 1016.5
20260502193021 48 30 4.0 11.0 0.00 0.00 0.00 44 1016.6
20260502191535 48 11 4.0 10.0 0.00 0.00 0.00 44 1016.7
20260502190056 49 360 2.0 6.0 0.00 0.00 0.00 44 1016.8
20260502184611 47 140 2.0 8.0 0.00 0.00 0.00 44 1016.9
20260502183002 47 5 2.0 8.0 0.00 0.00 0.00 44 1017.0
20260502181700 48 360 3.0 8.0 0.00 0.00 0.00 43 1017.1